When you browse on this site, cookies collect data to enhance your experience and personalize the content and advertising you see.
Visit our Privacy Policy to learn more. By continuing to use the site, you agree to this use of cookies and data.
  • în România
  • Lista ţărilor
  • Pe 7 zile
  • Temperatura apei
  • Meteo pe hartă
  • Widget-uri
  • user-avatar
    Intrare

    Meteo pe oră la Annaba

    Astăzi, 15 Noiembrie, Vineri

    Timp Temperatura Precipitaţii Vânt Presiune Umiditate
    00:00 +16°C° 0 mm 3 m/s 751 mmHg 62%
    01:00 +16°C° 0 mm 3 m/s 751 mmHg 63%
    02:00 +15°C° 0 mm 4 m/s 751 mmHg 69%
    03:00 +14°C° 0 mm 5 m/s 751 mmHg 75%
    04:00 +14°C° 0 mm 6 m/s 752 mmHg 81%
    05:00 +14°C° 0 mm 5 m/s 752 mmHg 81%
    06:00 +13°C° 0 mm 4 m/s 752 mmHg 81%
    07:00 +15°C° 0 mm 2 m/s 752 mmHg 83%
    08:00 +15°C° 0 mm 2 m/s 752 mmHg 79%
    09:00 +16°C° 0 mm 2 m/s 752 mmHg 75%
    10:00 +17°C° 0 mm 2 m/s 752 mmHg 70%
    11:00 +18°C° 0 mm 2 m/s 752 mmHg 67%
    12:00 +18°C° 0 mm 2 m/s 752 mmHg 64%
    13:00 +19°C° 0 mm 2 m/s 751 mmHg 61%
    14:00 +19°C° 0.1 mm 2 m/s 751 mmHg 65%
    15:00 +18°C° 0.1 mm 2 m/s 751 mmHg 69%
    16:00 +18°C° 0.1 mm 3 m/s 751 mmHg 74%
    17:00 +17°C° 0.4 mm 2 m/s 752 mmHg 76%
    18:00 +16°C° 0.4 mm 2 m/s 752 mmHg 78%
    19:00 +15°C° 0.4 mm 2 m/s 753 mmHg 81%
    20:00 +15°C° 0.1 mm 1 m/s 753 mmHg 81%
    21:00 +14°C° 0.1 mm 1 m/s 754 mmHg 81%
    22:00 +14°C° 0.1 mm 1 m/s 754 mmHg 81%
    23:00 +14°C° 0 mm 1 m/s 754 mmHg 81%

    Mâine, 16 Noiembrie, Sâmbătă

    Timp Temperatura Precipitaţii Vânt Presiune Umiditate
    00:00 +14°C° 0 mm 1 m/s 754 mmHg 82%
    01:00 +14°C° 0 mm 1 m/s 754 mmHg 83%
    02:00 +14°C° 0.2 mm 2 m/s 754 mmHg 80%
    03:00 +14°C° 0.2 mm 2 m/s 754 mmHg 78%
    04:00 +14°C° 0.2 mm 2 m/s 754 mmHg 75%
    05:00 +14°C° 0.2 mm 2 m/s 754 mmHg 76%
    06:00 +14°C° 0.2 mm 2 m/s 753 mmHg 76%
    07:00 +13°C° 0.2 mm 2 m/s 753 mmHg 76%
    08:00 +13°C° 0.7 mm 2 m/s 753 mmHg 79%
    09:00 +13°C° 0.7 mm 2 m/s 753 mmHg 83%
    10:00 +12°C° 0.7 mm 2 m/s 752 mmHg 86%
    11:00 +12°C° 0.6 mm 2 m/s 752 mmHg 86%
    12:00 +13°C° 0.6 mm 2 m/s 751 mmHg 85%
    13:00 +12°C° 0.6 mm 3 m/s 750 mmHg 85%
    14:00 +11°C° 0.4 mm 3 m/s 750 mmHg 86%
    15:00 +11°C° 0.4 mm 4 m/s 749 mmHg 87%
    16:00 +10°C° 0.4 mm 5 m/s 749 mmHg 87%
    17:00 +10°C° 0.9 mm 6 m/s 749 mmHg 87%
    18:00 +10°C° 0.9 mm 6 m/s 749 mmHg 87%
    19:00 +9°C° 0.9 mm 7 m/s 750 mmHg 86%
    20:00 +9°C° 2.3 mm 7 m/s 750 mmHg 86%
    21:00 +9°C° 2.3 mm 7 m/s 751 mmHg 86%
    22:00 +9°C° 2.3 mm 7 m/s 751 mmHg 86%
    23:00 +9°C° 1.1 mm 7 m/s 751 mmHg 86%

    Poimâine, 17 Noiembrie, Duminică

    Timp Temperatura Precipitaţii Vânt Presiune Umiditate
    00:00 +9°C° 1.1 mm 7 m/s 752 mmHg 85%
    01:00 +9°C° 1.1 mm 7 m/s 752 mmHg 85%
    02:00 +10°C° 1 mm 7 m/s 753 mmHg 84%
    03:00 +10°C° 1 mm 8 m/s 753 mmHg 83%
    04:00 +11°C° 1 mm 9 m/s 754 mmHg 82%
    05:00 +11°C° 0.4 mm 8 m/s 754 mmHg 81%
    06:00 +10°C° 0.4 mm 8 m/s 755 mmHg 80%
    07:00 +10°C° 0.4 mm 8 m/s 755 mmHg 80%
    08:00 +11°C° 0.2 mm 8 m/s 756 mmHg 77%
    09:00 +11°C° 0.2 mm 8 m/s 756 mmHg 74%
    10:00 +12°C° 0.2 mm 8 m/s 757 mmHg 72%
    11:00 +13°C° 0.2 mm 8 m/s 757 mmHg 67%
    12:00 +15°C° 0.2 mm 8 m/s 757 mmHg 61%
    13:00 +15°C° 0.2 mm 8 m/s 757 mmHg 56%
    14:00 +15°C° 0.1 mm 7 m/s 757 mmHg 57%
    15:00 +15°C° 0.1 mm 7 m/s 757 mmHg 57%
    16:00 +15°C° 0.1 mm 6 m/s 757 mmHg 58%
    17:00 +14°C° 0.1 mm 6 m/s 758 mmHg 59%
    18:00 +13°C° 0.1 mm 6 m/s 758 mmHg 61%
    19:00 +12°C° 0.1 mm 5 m/s 758 mmHg 62%
    20:00 +12°C° 0 mm 5 m/s 758 mmHg 63%
    21:00 +10°C° 0 mm 5 m/s 759 mmHg 63%
    22:00 +10°C° 0 mm 5 m/s 759 mmHg 64%
    23:00 +11°C° 0 mm 4 m/s 759 mmHg 63%

    18 Noiembrie, Luni

    Timp Temperatura Precipitaţii Vânt Presiune Umiditate
    00:00 +11°C° 0 mm 4 m/s 758 mmHg 63%
    01:00 +11°C° 0 mm 4 m/s 758 mmHg 62%
    02:00 +11°C° 0 mm 4 m/s 758 mmHg 62%
    03:00 +11°C° 0 mm 4 m/s 758 mmHg 61%
    04:00 +11°C° 0 mm 4 m/s 758 mmHg 61%
    05:00 +11°C° 0 mm 4 m/s 757 mmHg 61%
    06:00 +11°C° 0 mm 3 m/s 757 mmHg 61%
    07:00 +11°C° 0 mm 3 m/s 757 mmHg 61%
    08:00 +12°C° 0 mm 3 m/s 757 mmHg 58%
    09:00 +13°C° 0 mm 4 m/s 757 mmHg 55%
    10:00 +15°C° 0 mm 4 m/s 757 mmHg 53%
    11:00 +15°C° 0 mm 4 m/s 756 mmHg 52%
    12:00 +17°C° 0 mm 4 m/s 756 mmHg 52%
    13:00 +18°C° 0 mm 4 m/s 755 mmHg 52%
    14:00 +18°C° 0 mm 4 m/s 755 mmHg 55%
    15:00 +18°C° 0 mm 4 m/s 755 mmHg 57%
    16:00 +17°C° 0 mm 4 m/s 755 mmHg 60%
    17:00 +17°C° 0.2 mm 4 m/s 755 mmHg 63%
    18:00 +15°C° 0.2 mm 4 m/s 755 mmHg 67%
    19:00 +14°C° 0.2 mm 4 m/s 755 mmHg 70%
    20:00 +14°C° 0.3 mm 4 m/s 756 mmHg 70%
    21:00 +13°C° 0.3 mm 4 m/s 756 mmHg 69%
    22:00 +13°C° 0.3 mm 4 m/s 756 mmHg 69%
    23:00 +12°C° 0.1 mm 4 m/s 756 mmHg 70%

    19 Noiembrie, Marţi

    Timp Temperatura Precipitaţii Vânt Presiune Umiditate
    00:00 +12°C° 0.1 mm 5 m/s 757 mmHg 71%
    01:00 +12°C° 0.1 mm 5 m/s 757 mmHg 73%
    02:00 +10°C° 0.2 mm 5 m/s 757 mmHg 73%
    03:00 +10°C° 0.2 mm 5 m/s 757 mmHg 73%
    04:00 +10°C° 0.2 mm 5 m/s 757 mmHg 73%
    05:00 +10°C° 0.4 mm 5 m/s 758 mmHg 73%
    06:00 +10°C° 0.4 mm 5 m/s 758 mmHg 73%
    07:00 +12°C° 0.4 mm 5 m/s 758 mmHg 73%
    08:00 +12°C° 0.3 mm 4 m/s 759 mmHg 72%
    09:00 +13°C° 0.3 mm 4 m/s 760 mmHg 70%
    10:00 +14°C° 0.3 mm 4 m/s 760 mmHg 69%
    11:00 +14°C° 0.1 mm 4 m/s 760 mmHg 67%
    12:00 +15°C° 0.1 mm 4 m/s 760 mmHg 65%
    13:00 +17°C° 0.1 mm 3 m/s 760 mmHg 64%
    14:00 +17°C° 0 mm 3 m/s 760 mmHg 65%
    15:00 +16°C° 0 mm 3 m/s 760 mmHg 66%
    16:00 +16°C° 0 mm 3 m/s 760 mmHg 68%
    17:00 +15°C° 0 mm 2 m/s 760 mmHg 71%
    18:00 +14°C° 0 mm 1 m/s 760 mmHg 75%
    19:00 +13°C° 0 mm 1 m/s 760 mmHg 78%
    20:00 +13°C° 0 mm 1 m/s 761 mmHg 79%
    21:00 +13°C° 0 mm 1 m/s 761 mmHg 80%
    22:00 +13°C° 0 mm 2 m/s 761 mmHg 81%
    23:00 +12°C° 0 mm 2 m/s 761 mmHg 81%

    20 Noiembrie, Miercuri

    Timp Temperatura Precipitaţii Vânt Presiune Umiditate
    00:00 +12°C° 0 mm 2 m/s 761 mmHg 80%
    01:00 +12°C° 0 mm 2 m/s 761 mmHg 80%
    02:00 +12°C° 0 mm 2 m/s 760 mmHg 80%
    03:00 +12°C° 0 mm 2 m/s 760 mmHg 80%
    04:00 +11°C° 0 mm 3 m/s 760 mmHg 79%
    05:00 +11°C° 0 mm 3 m/s 760 mmHg 78%
    06:00 +11°C° 0 mm 3 m/s 760 mmHg 76%
    07:00 +11°C° 0 mm 3 m/s 760 mmHg 75%
    08:00 +12°C° 0 mm 3 m/s 760 mmHg 68%
    09:00 +14°C° 0 mm 4 m/s 760 mmHg 61%
    10:00 +15°C° 0 mm 4 m/s 760 mmHg 54%
    11:00 +17°C° 0 mm 4 m/s 759 mmHg 49%
    12:00 +19°C° 0 mm 4 m/s 759 mmHg 44%
    13:00 +20°C° 0 mm 3 m/s 758 mmHg 40%
    14:00 +20°C° 0 mm 3 m/s 758 mmHg 43%
    15:00 +20°C° 0 mm 2 m/s 758 mmHg 46%
    16:00 +19°C° 0 mm 2 m/s 757 mmHg 48%
    17:00 +18°C° 0 mm 2 m/s 757 mmHg 49%
    18:00 +17°C° 0 mm 2 m/s 758 mmHg 50%
    19:00 +16°C° 0 mm 3 m/s 758 mmHg 51%
    20:00 +14°C° 0 mm 3 m/s 758 mmHg 52%
    21:00 +14°C° 0 mm 3 m/s 758 mmHg 53%
    22:00 +14°C° 0 mm 3 m/s 758 mmHg 54%
    23:00 +14°C° 0 mm 3 m/s 758 mmHg 54%
    Arată mai mult